This is the latest recevied weather packets stored in our database for station/object EA5AFP-11. If no packets are shown the sender has not sent any weather packets the latest 1 day(s).
| Time | Temp. | Humidity | Pressure | Rain* | Wind** | Luminosity | Snow |
|---|---|---|---|---|---|---|---|
| 1778002040 | 22.78° C | 6% | - | 0 mm | 1.34 m/s, 90° | - | - |
| 1778001952 | 22.78° C | 6% | - | 0 mm | 1.34 m/s, 90° | - | - |
| 1778001658 | 22.78° C | 5% | - | 0 mm | 1.34 m/s, 112° | - | - |
| 1778001370 | 22.78° C | 5% | - | 0 mm | 2.68 m/s, 112° | - | - |
| 1778001077 | 22.78° C | 5% | - | 0 mm | 2.68 m/s, 112° | - | - |
| 1778000812 | 22.78° C | 5% | - | 0 mm | 2.24 m/s, 67° | - | - |
| 1778000517 | 22.78° C | 5% | - | 0 mm | 2.68 m/s, 90° | - | - |
| 1778000228 | 22.78° C | 5% | - | 0 mm | 2.68 m/s, 112° | - | - |
| 1778000049 | 22.78° C | 5% | - | 0 mm | 1.79 m/s, 90° | - | - |
| 1777999806 | 22.78° C | 5% | - | 0 mm | 1.79 m/s, 90° | - | - |
| 1777999541 | 23.33° C | 6% | - | 0 mm | 0.89 m/s, 90° | - | - |
| 1777999283 | 23.33° C | 6% | - | 0 mm | 1.79 m/s, 90° | - | - |
| 1777998993 | 22.78° C | 6% | - | 0 mm | 1.79 m/s, 90° | - | - |
| 1777998701 | 22.78° C | 6% | - | 0 mm | 2.68 m/s, 112° | - | - |
| 1777998436 | 22.78° C | 6% | - | 0 mm | 1.79 m/s, 67° | - | - |
| 1777998278 | 22.78° C | 6% | - | 0 mm | 2.24 m/s, 90° | - | - |
| 1777998013 | 22.22° C | 6% | - | 0 mm | 2.24 m/s, 90° | - | - |
| 1777997732 | 22.22° C | 6% | - | 0 mm | 1.79 m/s, 112° | - | - |
| 1777997455 | 22.22° C | 6% | - | 0 mm | 1.79 m/s, 90° | - | - |
| 1777997166 | 22.22° C | 6% | - | 0 mm | 1.79 m/s, 67° | - | - |
| 1777996878 | 22.22° C | 6% | - | 0 mm | 2.24 m/s, 90° | - | - |
| 1777996625 | 22.22° C | 6% | - | 0 mm | 2.68 m/s, 90° | - | - |
| 1777996418 | 22.22° C | 6% | - | 0 mm | 1.34 m/s, 67° | - | - |
| 1777996151 | 22.22° C | 6% | - | 0 mm | 2.68 m/s, 67° | - | - |
| 1777995877 | 22.22° C | 6% | - | 0 mm | 2.68 m/s, 112° | - | - |
* Rain latest hour (hover to see other rain measurements)
** Current wind speed in m/s (hover to see current wind gust speed)